Flag for U.S.A. Weather past 2 weeks in Washington DC, District of Columbia, U.S.A.

Now
40 °F

Overcast.


Feels Like: 32 °F
Forecast: 31 / 45 °F
Wind: 13 mph from Northwest

Location: Reagan National Airport

Current Time: Dec 19, 2014 at 12:44:20 PM

Latest Report: Dec 19, 2014 at 11:52 AM


Visibility: 10 mi

Pressure: 30.17 "Hg

Humidity: 53%

Dew point: 24 °F

Location of Washington DCLocation

Historic Weather in Washington DC — Graph

°F

Washington DC temperature yesterday

Maximum temperature yesterday: 42 °F (at 12:52 PM)
Minimum temperature yesterday: 37 °F (at 7:52 AM)
Average temperature yesterday: 40 °F

Past Weeks' High & Low Weather Summary

 TemperatureHumidityPressure
High58 °F (Dec 17, 12:52 PM)89% (Dec 6, 3:52 PM)30.60 "Hg (Dec 6, 3:52 PM)
Low33 °F (Dec 13, 5:52 AM)21% (Dec 11, 11:52 PM)29.81 "Hg (Dec 10, 1:52 PM)
Average43 °F59%30.13 "Hg
* Reported Dec 4 11:52 AM — Dec 19 11:52 AM, Washington DC, Weather by CustomWeather, © 2014

Note: Actual official high and low records may vary slightly from our data, if they occured in-between our weather recording intervals... More about our weather records

Advertising

Washington DC weather history for previous 24 hours

 ConditionsComfort  
Time TempWeatherWind HumidityBarometerVisibility
11:52 AM
Dec 19
40 °FOvercast.13 mph53%30.17 "Hg10 mi
10:52 AM39 °FOvercast.14 mph53%30.19 "Hg10 mi
9:52 AM39 °FOvercast.13 mph50%30.19 "Hg10 mi
8:52 AM39 °FOvercast.12 mph50%30.17 "Hg10 mi
7:52 AM38 °FPartly sunny.12 mph51%30.16 "Hg10 mi
6:52 AM38 °FOvercast.7 mph51%30.15 "Hg10 mi
5:52 AM37 °FOvercast.7 mph52%30.13 "Hg10 mi
4:52 AM37 °FOvercast.7 mph52%30.13 "Hg10 mi
3:52 AM38 °FOvercast.9 mph51%30.13 "Hg10 mi
2:52 AM38 °FOvercast.7 mph51%30.14 "Hg10 mi
1:52 AM38 °FMostly cloudy.13 mph53%30.12 "Hg10 mi
12:52 AM38 °FOvercast.10 mph51%30.12 "Hg10 mi
11:52 PM
Dec 18
38 °FOvercast.13 mph51%30.13 "Hg10 mi
10:52 PM38 °FOvercast.8 mph51%30.13 "Hg10 mi
9:52 PM38 °FPassing clouds.13 mph51%30.12 "Hg10 mi
8:52 PM38 °FPassing clouds.10 mph53%30.13 "Hg10 mi
7:52 PM39 °FPassing clouds.8 mph48%30.14 "Hg10 mi
6:52 PM39 °FPassing clouds.12 mph50%30.13 "Hg10 mi
5:52 PM40 °FPassing clouds.13 mph49%30.12 "Hg10 mi
4:52 PM40 °FPartly cloudy.12 mph49%30.11 "Hg10 mi
3:52 PM41 °FBroken clouds.13 mph47%30.11 "Hg10 mi
2:52 PM42 °FBroken clouds.13 mph45%30.11 "Hg10 mi
1:52 PM42 °FBroken clouds.18 mph45%30.11 "Hg10 mi
12:52 PM42 °FPartly sunny.16 mph43%30.13 "Hg10 mi
Weather by CustomWeather, © 2014

See weather overviewHow to use our weather pages